Location: Dover
(48.8500°N, 53.9833°W)
Time: 15:50:33
(UTC+00:00)

Cosmos 2151 Rocket - Pass Details

Date: 14 November 2025
Orbit: 611 x 636 km, 82.5° (Epoch: 12 December)

Event Time Altitude Azimuth Distance (km) Brightness Sun altitude
Rises 21:30:57 0° 162° (SSE) 2,914 6.9 -15.5°
Reaches altitude 10° 21:33:21 10° 152° (SSE) 2,014 6.0 -15.9°
Maximum altitude 21:37:17 31° 90° (E) 1,111 4.3 -16.5°
Enters shadow 21:37:43 31° 78° (ENE) 1,127 4.3 -16.6°
